This is the latest recevied weather packets stored in our database for station/object KC1TEM-13. If no packets are shown the sender has not sent any weather packets the latest 10 day(s).
| Time | Temp. | Humidity | Pressure | Rain* | Wind** | Luminosity | Snow |
|---|---|---|---|---|---|---|---|
| 1777774108 | 7.78° C | 97% | 1010.9 hPa | 0 mm | - | 0 W/m² | - |
| 1777773807 | 7.78° C | 97% | 1011 hPa | 0 mm | - | 0 W/m² | - |
| 1777773502 | 7.78° C | 97% | 1011.3 hPa | 0 mm | - | 0 W/m² | - |
| 1777773199 | 7.78° C | 97% | 1010.9 hPa | 0 mm | - | 0 W/m² | - |
| 1777768958 | 8.89° C | 96% | 1011.2 hPa | 0 mm | - | 0 W/m² | - |
| 1777768654 | 8.89° C | 96% | 1011.2 hPa | 0 mm | - | 0 W/m² | - |
| 1777768351 | 8.89° C | 96% | 1011.4 hPa | 0 mm | - | 0 W/m² | - |
| 1777768048 | 8.89° C | 96% | 1011.4 hPa | 0 mm | - | 0 W/m² | - |
| 1777767745 | 8.89° C | 95% | 1011.4 hPa | 0 mm | - | 0 W/m² | - |
| 1777767441 | 8.33° C | 95% | 1011.3 hPa | 0 mm | - | 0 W/m² | - |
| 1777767138 | 8.89° C | 95% | 1011.1 hPa | 0 mm | - | 0 W/m² | - |
| 1777766836 | 8.89° C | 95% | 1011.2 hPa | 0 mm | - | 0 W/m² | - |
| 1777766533 | 8.89° C | 95% | 1011.2 hPa | 0 mm | - | 0 W/m² | - |
| 1777766230 | 8.89° C | 95% | 1011.2 hPa | 0 mm | - | 1 W/m² | - |
| 1777765626 | 8.89° C | 94% | 1011.1 hPa | 0 mm | - | 2 W/m² | - |
| 1777765321 | 8.89° C | 94% | 1011.1 hPa | 0 mm | - | 4 W/m² | - |
| 1777765016 | 8.89° C | 94% | 1010.9 hPa | 0 mm | - | 6 W/m² | - |
| 1777764714 | 8.89° C | 94% | 1010.8 hPa | 0 mm | - | 9 W/m² | - |
| 1777764107 | 9.44° C | 94% | 1010.8 hPa | 0 mm | - | 22 W/m² | - |
| 1777761987 | 8.89° C | 94% | 1010.8 hPa | 0 mm | - | 8 W/m² | - |
| 1777761080 | 9.44° C | 93% | 1010.5 hPa | 0.51 mm | - | 9 W/m² | - |
| 1777760777 | 9.44° C | 93% | 1010.8 hPa | 1.27 mm | - | 6 W/m² | - |
| 1777760473 | 9.44° C | 93% | 1011 hPa | 1.27 mm | - | 10 W/m² | - |
| 1777760168 | 9.44° C | 92% | 1010.9 hPa | 3.05 mm | - | 12 W/m² | - |
| 1777759866 | 9.44° C | 90% | 1010.8 hPa | 6.1 mm | - | 11 W/m² | - |
* Rain latest hour (hover to see other rain measurements)
** Current wind speed in m/s (hover to see current wind gust speed)